Miscellaneous Local Product
Issued by NWS North Platte, NE

Home | Current Version | Previous Version | Text Only | Print | Product List | Glossary On
Versions: 1 2 3 4 5 6 7 8 9 10 11 12 13 14 15 16 17 18 19 20 21 22 23 24 25 26 27 28 29 30 31 32 33 34 35 36 37 38 39 40 41 42 43 44 45 46 47 48 49 50
000
AXUS43 KLBF 010510
MISLBF


WESTERN AND NORTH CENTRAL NEBRASKA HOURLY WEATHER ROUNDUP
NATIONAL WEATHER SERVICE NORTH PLATTE NE
1200 AM CDT MON MAY 01 2017

NOTE: "FAIR" INDICATES FEW OR NO CLOUDS BELOW 12,000 FEET WITH NO
SIGNIFICANT WEATHER AND/OR OBSTRUCTIONS TO VISIBILITY.

NOTE: STATIONS NOT REPORTING VARIABLES SUCH AS SKY/WEATHER OR
PRESSURE ARE PROVIDED BY RAWS AND APRS NETWORKS AND ARE NOT UNDER
NATIONAL WEATHER SERVICE QUALITY CONTROL.

...OBSERVATIONS IN AND NEAR THE EASTERN PANHANDLE OF NEBRASKA...

CITY           SKY/WX    TMP DP  RH WIND       PRES   REMARKS
PINE RIDGE     CLOUDY    35  28  75 E6        29.83F WCI  30
CHADRON        CLOUDY    35  27  72 W5        29.84F WCI  31
ALLIANCE       CLOUDY    37  26  64 N9        29.82F WCI  30
SIDNEY         CLOUDY    40  24  53 N12       29.83S WCI  33
CRESCENT LAKE    N/A     40  24  52 N9          N/A  WCI  34
$$

...OBSERVATIONS IN NORTHERN NEBRASKA AND FAR SOUTHERN SOUTH DAKOTA...

CITY           SKY/WX    TMP DP  RH WIND       PRES   REMARKS
WINNER         FAIR      43  25  49 N9        29.74F
VALENTINE      CLOUDY    45  18  34 N12       29.75F
THEDFORD       CLOUDY    43  22  42 N12       29.72F
AINSWORTH      CLOUDY    37  30  78 CALM      29.71F
O`NEILL        LGT SNOW  34  33  94 N15       29.66F WCI  24
ORD            LGT SNOW  33  31  92 N13       29.64F FOG     WCI  24
BROKEN BOW     CLOUDY    35  32  88 N22G32    29.65F WCI  23
HALSEY           N/A     42  21  42 NW9G16      N/A
BUTTE            N/A     36  34  94 N16G24      N/A  WCI  26
CHAMBERS         N/A     33  32  98 CALM        N/A
EWING            N/A     32  32  99 N3          N/A
$$

...OBSERVATIONS IN SOUTHWEST NEBRASKA AND FAR NORTHEAST COLORADO...

CITY           SKY/WX    TMP DP  RH WIND       PRES   REMARKS
HOLYOKE        FAIR      41  27  56 NW12      29.79F
IMPERIAL       CLOUDY    42  24  49 NW12      29.76S
OGALLALA       CLOUDY    44  26  51 NW10      29.77S
NORTH PLATTE   CLOUDY    44  23  43 N12       29.71F
MCCOOK         CLOUDY    35  31  85 N3        29.72S
LEXINGTON      FLURRIES  34  32  93 N15       29.69F WCI  24
STAPLETON        N/A     41  22  47 CALM        N/A
GOTHENBURG       N/A     36  28  73 N9          N/A  WCI  29
CALLAWAY         N/A     34  32  93 N13         N/A  WCI  25
$$

...OBSERVATIONS IN CENTRAL LINCOLN COUNTY AREA...

CITY           SKY/WX    TMP DP  RH WIND       PRES   REMARKS
N.P. AIRPORT   CLOUDY    44  23  43 N12       29.71F
N.P. DOWNTOWN    N/A     43  24  46 NW7G15      N/A
N.P. SOUTHEAST   N/A     44  24  44 N6          N/A
N.P. HILLCREST   N/A     44  22  42 N16G26      N/A
$$

...SOME OBSERVATIONS FROM AROUND THE REGION...

CITY           SKY/WX    TMP DP  RH WIND       PRES   REMARKS
DENVER         MOCLDY    49  26  41 N9        29.89S
LIMON          CLEAR     34  26  72 W12       29.88S WCI  25
ASPEN          CLOUDY    42  22  44 NW6       30.08R
LARAMIE        CLOUDY    39  24  55 W13       29.96R WCI  31
CASPER         CLOUDY    38  33  82 SE5       29.93S WCI  34
CHEYENNE       CLEAR     43  24  47 N14         N/A
SCOTTSBLUFF    CLOUDY    41  28  60 W5        29.85S
GRAND ISLAND   LGT SNOW  33  33 100 NW21      29.59F FOG     WCI  21
OMAHA          DRIZZLE   42  38  85 N13       29.46F FOG
SIOUX FALLS    LGT SNOW  34  34 100 N23G35    29.58F FOG     WCI  22
PIERRE         CLOUDY    40  22  48 NE8       29.78F WCI  34
RAPID CITY     CLOUDY    45  27  49 N7        29.84F
BISMARCK       MOCLDY    43  30  60 NE7       29.84F
KANSAS CITY    CLOUDY    44  41  89 S8        29.44F
HILL CITY      LGT RAIN  35  34  96 N30G41    29.72R WCI  22
WICHITA        CLOUDY    40  36  86 NW16G24   29.57R WCI  31
DODGE CITY     CLOUDY    36  33  89 NW20G29   29.74R WCI  25
OKLAHOMA CITY  CLOUDY    43  35  73 W20G26    29.77S
DALLAS         CLEAR     55  34  45 W10       29.92R
AMARILLO       CLEAR     39  31  72 SW7       29.89R WCI  34
$$




USA.gov is the U.S. government's official web portal to all federal, state and local government web resources and services.